マクノート彗星

336P/McNaught (2006)

English version
Home page
Updated on November 3, 2020

---------------------------------------------------------------------

・ プロフィール

符号 336P/2006 G1
発見日 2006年4月5日
発見光度 18.0等
発見者 R. H. McNaught (Siding Spring)

・ 軌道要素

Epoch 2006 Aug. 13.0 TT = JDT 2453960.5
T 2006 Aug. 18.52615 TT                                 MPCW
q   2.6320420            (2000.0)            P               Q
n   0.09320795     Peri.  313.94832     -0.25637838     +0.92583169
a   4.8176372      Node   299.25113     -0.77039177     -0.36922791
e   0.4536654      Incl.   18.55786     -0.58375221     +0.08066250
P  10.57
From 144 observations 2006 Apr. 5-2017 May 5, mean residual 0".5.

・ 光度変化

        m1 = 12.0 + 5 logΔ + 10.0 log r

---------------------------------------------------------------------

軌道要素はM.P.E.C. 2017-L52に掲載されたものです。
光度グラフはComet for Windowsで作成したものです。

---------------------------------------------------------------------

Copyright(C) Seiichi Yoshida (comet@aerith.net). All rights reserved.